SUBRM HEOC-HEGN

Flight info

Callsign SUBRM
Flight time N/A
Altitude 7000
Route CVO L315 HGD
Aircraft BE36/L-BDFGLORY/S

Departure

Time 2026-04-26 17:39
Airport October Airport (HEOC)

Arrival

Time N/A
Airport Hurghada International Airport (HEGN)
Time Latitude Longitude Altitude Speed Heading
2026-04-26 16:47 29.81223 30.82693 772 ft 0 kts 98°
2026-04-26 17:32 29.81222 30.82697 772 ft 5 kts 103°
2026-04-26 17:33 29.81157 30.82723 773 ft 4 kts 193°
2026-04-26 17:33 29.81151 30.82721 773 ft 0 kts 189°
2026-04-26 17:34 29.81130 30.82672 774 ft 3 kts 281°
2026-04-26 17:34 29.81139 30.82616 773 ft 9 kts 276°
2026-04-26 17:34 29.81150 30.82523 773 ft 9 kts 251°
2026-04-26 17:34 29.81109 30.82497 774 ft 4 kts 192°
2026-04-26 17:35 29.81055 30.82486 775 ft 17 kts 191°
2026-04-26 17:35 29.80920 30.82458 780 ft 17 kts 189°
2026-04-26 17:35 29.80823 30.82440 783 ft 11 kts 185°
2026-04-26 17:35 29.80721 30.82413 785 ft 10 kts 223°
2026-04-26 17:36 29.80720 30.82358 786 ft 4 kts 279°
2026-04-26 17:36 29.80723 30.82343 787 ft 0 kts 280°
2026-04-26 17:36 29.80727 30.82314 787 ft 0 kts 283°
2026-04-26 17:37 29.80728 30.82311 787 ft 3 kts 281°
2026-04-26 17:37 29.80739 30.82239 788 ft 4 kts 305°
2026-04-26 17:38 29.80752 30.82237 787 ft 0 kts 10°
2026-04-26 17:38 29.80955 30.82281 780 ft 53 kts
2026-04-26 17:38 29.81433 30.82369 780 ft 80 kts
2026-04-26 17:38 29.81907 30.82542 989 ft 70 kts 11°
2026-04-26 17:39 29.82362 30.82826 1140 ft 80 kts 31°
2026-04-26 17:39 29.82816 30.83271 1218 ft 94 kts 26°
2026-04-26 17:39 29.83292 30.83665 1573 ft 73 kts 23°
2026-04-26 17:39 29.83594 30.84008 1742 ft 71 kts 40°
2026-04-26 17:40 29.83977 30.84496 1757 ft 89 kts 37°
2026-04-26 17:40 29.84272 30.84881 1780 ft 102 kts 37°
2026-04-26 17:40 29.84939 30.85731 1956 ft 112 kts 40°
2026-04-26 17:40 29.85541 30.86341 2083 ft 114 kts 25°
2026-04-26 17:41 29.86194 30.86895 2248 ft 117 kts 28°
2026-04-26 17:41 29.86922 30.87295 2393 ft 119 kts 13°
2026-04-26 17:41 29.87717 30.87638 2571 ft 125 kts 12°
2026-04-26 17:41 29.88520 30.88105 2739 ft 137 kts 38°
2026-04-26 17:42 29.89002 30.89099 2915 ft 146 kts 64°
2026-04-26 17:42 29.89332 30.90218 3091 ft 150 kts 70°
2026-04-26 17:42 29.89627 30.91387 3259 ft 153 kts 73°
2026-04-26 17:42 29.89847 30.92601 3432 ft 155 kts 77°
2026-04-26 17:43 29.90056 30.93817 3602 ft 157 kts 77°
2026-04-26 17:43 29.90272 30.95058 3771 ft 158 kts 77°
2026-04-26 17:43 29.90486 30.96307 3940 ft 159 kts 77°
2026-04-26 17:43 29.90702 30.97563 4110 ft 160 kts 77°
2026-04-26 17:44 29.90920 30.98832 4281 ft 161 kts 77°
2026-04-26 17:44 29.91123 31.00094 4445 ft 161 kts 79°
2026-04-26 17:44 29.91318 31.01375 4615 ft 162 kts 75°
2026-04-26 17:44 29.91629 31.02612 4783 ft 161 kts 72°
2026-04-26 17:45 29.91949 31.03862 4937 ft 162 kts 67°
2026-04-26 17:45 29.92415 31.05039 5120 ft 161 kts 61°
2026-04-26 17:45 29.92919 31.06192 5295 ft 162 kts 60°
2026-04-26 17:45 29.93384 31.07246 5449 ft 162 kts 60°
2026-04-26 17:46 29.93942 31.08505 5625 ft 162 kts 60°
2026-04-26 17:46 29.94460 31.09675 5805 ft 163 kts 60°
2026-04-26 17:46 29.94973 31.10832 5974 ft 163 kts 60°
2026-04-26 17:46 29.95495 31.12005 6153 ft 163 kts 60°
2026-04-26 17:47 29.96042 31.13158 6315 ft 164 kts 57°
2026-04-26 17:47 29.96415 31.13906 6426 ft 164 kts 57°
2026-04-26 17:47 29.97180 31.15441 6627 ft 165 kts 57°
2026-04-26 17:47 29.97752 31.16584 6796 ft 166 kts 57°
2026-04-26 17:48 29.98332 31.17746 6976 ft 167 kts 57°
2026-04-26 17:48 29.98876 31.18942 7164 ft 168 kts 61°
2026-04-26 17:48 29.99400 31.20133 7341 ft 169 kts 60°
2026-04-26 17:48 29.99943 31.21340 7493 ft 170 kts 59°
2026-04-26 17:49 30.00532 31.22544 7668 ft 171 kts 57°
2026-04-26 17:49 30.01130 31.23729 7827 ft 172 kts 57°
2026-04-26 17:49 30.01734 31.24903 7990 ft 173 kts 56°
2026-04-26 17:49 30.02378 31.26135 8095 ft 185 kts 56°
2026-04-26 17:50 30.03074 31.27451 8095 ft 198 kts 56°
2026-04-26 17:50 30.03807 31.28828 8080 ft 206 kts 56°
2026-04-26 17:50 30.04517 31.30153 8072 ft 211 kts 56°
2026-04-26 17:50 30.05294 31.31598 8076 ft 214 kts 56°
2026-04-26 17:51 30.06091 31.33073 8091 ft 216 kts 56°
2026-04-26 17:51 30.06887 31.34546 8087 ft 218 kts 56°
2026-04-26 17:51 30.07697 31.36043 8091 ft 219 kts 56°
2026-04-26 17:51 30.08505 31.37536 8072 ft 219 kts 56°
2026-04-26 17:52 30.09284 31.39040 8078 ft 220 kts 60°
2026-04-26 17:52 30.09661 31.40737 8068 ft 219 kts 96°
2026-04-26 17:52 30.09038 31.42257 8070 ft 205 kts 142°
2026-04-26 17:52 30.07795 31.42836 8081 ft 187 kts 183°
2026-04-26 17:53 30.06498 31.42817 8091 ft 185 kts 189°
2026-04-26 17:53 30.05182 31.42776 8082 ft 189 kts 181°
2026-04-26 17:53 30.03947 31.43400 8091 ft 199 kts 155°
2026-04-26 17:54 30.01597 31.45188 8099 ft 202 kts 152°
2026-04-26 17:54 30.00433 31.46108 8092 ft 202 kts 152°
2026-04-26 17:54 29.99261 31.47041 8100 ft 202 kts 152°
2026-04-26 17:54 29.98112 31.47963 8096 ft 202 kts 152°
2026-04-26 17:55 29.96944 31.48904 8105 ft 202 kts 151°
2026-04-26 17:55 29.95801 31.49830 8107 ft 203 kts 151°
2026-04-26 17:55 29.94641 31.50773 8111 ft 204 kts 151°
2026-04-26 17:55 29.93481 31.51717 8104 ft 204 kts 152°
2026-04-26 17:56 29.92346 31.52646 8308 ft 193 kts 152°
2026-04-26 17:56 29.90246 31.54360 8795 ft 179 kts 153°
2026-04-26 17:57 29.88265 31.55978 9287 ft 171 kts 154°
2026-04-26 17:57 29.87294 31.56769 9536 ft 169 kts 154°
2026-04-26 17:57 29.86333 31.57551 9787 ft 167 kts 155°
2026-04-26 17:57 29.85394 31.58316 10033 ft 166 kts 155°
2026-04-26 17:58 29.82572 31.60613 10798 ft 165 kts 155°
2026-04-26 17:59 29.80556 31.62233 10795 ft 191 kts 154°
2026-04-26 17:59 29.79428 31.63146 10706 ft 202 kts 153°
2026-04-26 17:59 29.78259 31.64096 10603 ft 209 kts 152°
2026-04-26 17:59 29.77059 31.65077 10500 ft 213 kts 153°
2026-04-26 18:00 29.75834 31.66078 10382 ft 216 kts 153°
2026-04-26 18:00 29.74615 31.67071 10257 ft 217 kts 153°
2026-04-26 18:00 29.73372 31.68085 10138 ft 218 kts 153°
2026-04-26 18:00 29.72137 31.69093 10073 ft 216 kts 153°
2026-04-26 18:01 29.70916 31.70090 10072 ft 211 kts 153°
2026-04-26 18:01 29.69735 31.71052 10072 ft 209 kts 153°
2026-04-26 18:01 29.68548 31.72017 10079 ft 207 kts 153°
2026-04-26 18:01 29.67371 31.72973 10084 ft 207 kts 153°
2026-04-26 18:02 29.66194 31.73929 10084 ft 206 kts 154°
2026-04-26 18:02 29.65410 31.74567 10086 ft 206 kts 153°
2026-04-26 18:02 29.63845 31.75834 10083 ft 205 kts 153°
2026-04-26 18:02 29.62683 31.76778 10086 ft 205 kts 153°
2026-04-26 18:03 29.61520 31.77720 10090 ft 206 kts 153°
2026-04-26 18:03 29.60346 31.78672 10087 ft 205 kts 153°
2026-04-26 18:03 29.59165 31.79633 10086 ft 205 kts 153°
2026-04-26 18:03 29.58006 31.80572 10090 ft 206 kts 153°
2026-04-26 18:04 29.56825 31.81529 10087 ft 206 kts 153°
2026-04-26 18:04 29.55669 31.82464 10090 ft 204 kts 153°
2026-04-26 18:04 29.54506 31.83409 10090 ft 203 kts 153°
2026-04-26 18:05 29.52196 31.85281 10093 ft 202 kts 154°
2026-04-26 18:05 29.51057 31.86201 10093 ft 202 kts 153°
2026-04-26 18:05 29.49901 31.87136 10096 ft 202 kts 153°
2026-04-26 18:05 29.48759 31.88058 10096 ft 201 kts 154°
2026-04-26 18:06 29.47607 31.88987 10097 ft 201 kts 153°
2026-04-26 18:06 29.46454 31.89923 10098 ft 201 kts 154°
2026-04-26 18:06 29.45313 31.90844 10104 ft 201 kts 153°
2026-04-26 18:06 29.44169 31.91768 10105 ft 202 kts 154°
2026-04-26 18:07 29.43006 31.92705 10107 ft 202 kts 153°
2026-04-26 18:07 29.41855 31.93639 10109 ft 203 kts 153°
2026-04-26 18:07 29.40902 31.94860 10092 ft 208 kts 144°
2026-04-26 18:07 29.40087 31.95353 10094 ft 190 kts 175°
2026-04-26 18:08 29.38383 31.95553 10105 ft 184 kts 185°
2026-04-26 18:08 29.37085 31.95741 10107 ft 188 kts 179°
2026-04-26 18:08 29.35802 31.96091 10108 ft 192 kts 173°
2026-04-26 18:08 29.34514 31.96576 10108 ft 194 kts 168°
2026-04-26 18:09 29.33266 31.97156 10105 ft 196 kts 165°
2026-04-26 18:09 29.32018 31.97816 10108 ft 197 kts 163°
2026-04-26 18:09 29.30786 31.98536 10107 ft 199 kts 161°
2026-04-26 18:09 29.29562 31.99300 10109 ft 200 kts 160°
2026-04-26 18:10 29.28343 32.00098 10112 ft 200 kts 159°
2026-04-26 18:10 29.27152 32.00911 10115 ft 201 kts 158°
2026-04-26 18:10 29.25941 32.01752 10115 ft 202 kts 157°
2026-04-26 18:10 29.24739 32.02609 10110 ft 202 kts 156°
2026-04-26 18:11 29.23561 32.03458 10111 ft 202 kts 156°
2026-04-26 18:11 29.22360 32.04333 10110 ft 202 kts 156°
2026-04-26 18:11 29.21179 32.05195 10110 ft 202 kts 156°
2026-04-26 18:11 29.19994 32.06068 10108 ft 202 kts 156°
2026-04-26 18:12 29.18809 32.06944 10104 ft 202 kts 156°
2026-04-26 18:12 29.17623 32.07820 10102 ft 202 kts 156°
2026-04-26 18:12 29.16451 32.08689 10103 ft 202 kts 155°
2026-04-26 18:12 29.15267 32.09564 10101 ft 202 kts 156°
2026-04-26 18:13 29.14092 32.10438 10100 ft 202 kts 155°
2026-04-26 18:13 29.12910 32.11316 10100 ft 202 kts 155°
2026-04-26 18:13 29.11735 32.12191 10098 ft 202 kts 156°
2026-04-26 18:13 29.10943 32.12782 10092 ft 202 kts 156°
2026-04-26 18:14 29.09359 32.13956 10090 ft 202 kts 155°
2026-04-26 18:14 29.08188 32.14828 10090 ft 202 kts 155°
2026-04-26 18:14 29.07012 32.15704 10085 ft 202 kts 155°
2026-04-26 18:14 29.05816 32.16589 10083 ft 202 kts 155°
2026-04-26 18:15 29.04638 32.17464 10076 ft 202 kts 155°
2026-04-26 18:15 29.03457 32.18341 10073 ft 202 kts 155°
2026-04-26 18:15 29.02294 32.19206 10067 ft 202 kts 155°
2026-04-26 18:15 29.01114 32.20085 10060 ft 202 kts 155°
2026-04-26 18:16 28.99923 32.20971 10062 ft 201 kts 155°
2026-04-26 18:16 28.97574 32.22712 10077 ft 202 kts 156°
2026-04-26 18:16 28.96380 32.23597 10078 ft 202 kts 155°
2026-04-26 18:17 28.95201 32.24470 10082 ft 202 kts 155°
2026-04-26 18:17 28.94023 32.25338 10081 ft 202 kts 155°
2026-04-26 18:17 28.92834 32.26222 10082 ft 202 kts 154°
2026-04-26 18:17 28.91649 32.27101 10082 ft 202 kts 154°
2026-04-26 18:18 28.90471 32.27975 10085 ft 201 kts 155°
2026-04-26 18:18 28.89295 32.28840 10094 ft 201 kts 155°
2026-04-26 18:18 28.88121 32.29693 10099 ft 201 kts 155°
2026-04-26 18:18 28.86933 32.30561 10100 ft 201 kts 155°
2026-04-26 18:19 28.85758 32.31422 10101 ft 201 kts 155°
2026-04-26 18:19 28.84569 32.32297 10099 ft 202 kts 155°
2026-04-26 18:19 28.83388 32.33166 10102 ft 202 kts 155°
2026-04-26 18:19 28.82210 32.34035 10108 ft 201 kts 155°
2026-04-26 18:20 28.81032 32.34904 10107 ft 201 kts 155°
2026-04-26 18:20 28.79855 32.35770 10106 ft 201 kts 155°
2026-04-26 18:20 28.78684 32.36636 10107 ft 201 kts 155°
2026-04-26 18:20 28.77901 32.37216 10109 ft 201 kts 155°
2026-04-26 18:21 28.76327 32.38375 10105 ft 201 kts 154°
2026-04-26 18:21 28.75141 32.39250 10108 ft 201 kts 154°
2026-04-26 18:21 28.73968 32.40116 10107 ft 201 kts 155°
2026-04-26 18:21 28.72794 32.40982 10106 ft 201 kts 155°
2026-04-26 18:22 28.71606 32.41856 10103 ft 201 kts 155°
2026-04-26 18:22 28.70435 32.42722 10101 ft 201 kts 155°
2026-04-26 18:22 28.69265 32.43583 10098 ft 200 kts 155°
2026-04-26 18:22 28.68089 32.44450 10100 ft 200 kts 155°
2026-04-26 18:23 28.66922 32.45313 10100 ft 200 kts 155°
2026-04-26 18:23 28.65750 32.46173 10097 ft 200 kts 155°
2026-04-26 18:23 28.64688 32.47218 10083 ft 212 kts 128°
2026-04-26 18:23 28.64007 32.48741 10097 ft 213 kts 122°
2026-04-26 18:24 28.63353 32.50256 10098 ft 214 kts 122°
2026-04-26 18:24 28.62698 32.51783 10095 ft 214 kts 121°
2026-04-26 18:24 28.62046 32.53307 10088 ft 214 kts 121°
2026-04-26 18:24 28.61399 32.54822 10088 ft 214 kts 122°
2026-04-26 18:25 28.60750 32.56337 10088 ft 214 kts 121°
2026-04-26 18:25 28.60091 32.57873 10085 ft 214 kts 121°
2026-04-26 18:25 28.59440 32.59387 10084 ft 216 kts 121°
2026-04-26 18:25 28.58779 32.60932 10079 ft 216 kts 121°
2026-04-26 18:26 28.58115 32.62479 10073 ft 217 kts 122°
2026-04-26 18:26 28.57456 32.64016 10069 ft 216 kts 121°
2026-04-26 18:26 28.56801 32.65544 10066 ft 216 kts 122°
2026-04-26 18:26 28.56137 32.67067 10065 ft 215 kts 122°
2026-04-26 18:27 28.55473 32.68586 10059 ft 215 kts 122°
2026-04-26 18:27 28.54802 32.70118 10059 ft 215 kts 122°
2026-04-26 18:27 28.54137 32.71644 10059 ft 215 kts 122°
2026-04-26 18:27 28.53470 32.73169 10056 ft 215 kts 123°
2026-04-26 18:28 28.52809 32.74674 10043 ft 215 kts 123°
2026-04-26 18:28 28.52084 32.76154 10037 ft 211 kts 129°
2026-04-26 18:28 28.51226 32.77506 10042 ft 208 kts 135°
2026-04-26 18:28 28.50269 32.78737 10038 ft 206 kts 140°
2026-04-26 18:29 28.49264 32.79864 10037 ft 204 kts 144°
2026-04-26 18:29 28.48194 32.80949 10034 ft 203 kts 147°
2026-04-26 18:29 28.47108 32.81973 10031 ft 202 kts 149°
2026-04-26 18:29 28.46011 32.82946 10039 ft 201 kts 149°
2026-04-26 18:30 28.44894 32.83900 10037 ft 201 kts 150°
2026-04-26 18:30 28.43770 32.84832 10034 ft 200 kts 151°
2026-04-26 18:30 28.42627 32.85755 10039 ft 200 kts 152°
2026-04-26 18:30 28.41486 32.86662 10040 ft 200 kts 153°
2026-04-26 18:31 28.40353 32.87554 10042 ft 200 kts 153°
2026-04-26 18:31 28.39199 32.88453 10042 ft 200 kts 153°
2026-04-26 18:31 28.38039 32.89350 10036 ft 200 kts 153°
2026-04-26 18:31 28.36899 32.90227 10029 ft 199 kts 153°
2026-04-26 18:32 28.35750 32.91114 10028 ft 199 kts 153°
2026-04-26 18:32 28.34608 32.91986 10023 ft 198 kts 153°
2026-04-26 18:32 28.33453 32.92870 10033 ft 198 kts 153°
2026-04-26 18:32 28.32311 32.93738 10031 ft 198 kts 153°
2026-04-26 18:33 28.31165 32.94614 10032 ft 198 kts 153°
2026-04-26 18:33 28.30009 32.95493 10036 ft 199 kts 154°
2026-04-26 18:33 28.28871 32.96359 10032 ft 199 kts 153°
2026-04-26 18:33 28.27709 32.97243 10029 ft 199 kts 154°
2026-04-26 18:34 28.26564 32.98112 10030 ft 199 kts 153°
2026-04-26 18:34 28.25414 32.98983 10030 ft 199 kts 153°
2026-04-26 18:34 28.24267 32.99852 10025 ft 199 kts 154°
2026-04-26 18:34 28.23113 33.00730 10025 ft 198 kts 153°
2026-04-26 18:35 28.21952 33.01612 10030 ft 198 kts 153°
2026-04-26 18:35 28.20802 33.02481 10026 ft 198 kts 154°
2026-04-26 18:35 28.19654 33.03354 10029 ft 198 kts 153°
2026-04-26 18:35 28.18509 33.04217 10026 ft 198 kts 153°
2026-04-26 18:36 28.17362 33.05085 10023 ft 198 kts 153°
2026-04-26 18:36 28.16218 33.05956 10022 ft 198 kts 153°
2026-04-26 18:36 28.15077 33.06821 10028 ft 197 kts 153°
2026-04-26 18:36 28.13933 33.07684 10036 ft 198 kts 154°
2026-04-26 18:37 28.12765 33.08566 10031 ft 198 kts 153°
2026-04-26 18:37 28.11616 33.09436 10030 ft 199 kts 154°
2026-04-26 18:37 28.10476 33.10300 10020 ft 198 kts 153°
2026-04-26 18:37 28.09315 33.11177 10019 ft 197 kts 154°
2026-04-26 18:38 28.08182 33.12037 10023 ft 197 kts 154°
2026-04-26 18:38 28.07035 33.12902 10021 ft 197 kts 154°
2026-04-26 18:38 28.05892 33.13766 10019 ft 197 kts 154°
2026-04-26 18:38 28.04735 33.14640 10023 ft 197 kts 153°
2026-04-26 18:39 28.03591 33.15503 10017 ft 198 kts 154°
2026-04-26 18:39 28.02451 33.16361 10020 ft 198 kts 154°
2026-04-26 18:39 28.01308 33.17226 10021 ft 198 kts 154°
2026-04-26 18:39 28.00158 33.18090 10021 ft 198 kts 153°
2026-04-26 18:40 27.99008 33.18958 10021 ft 198 kts 153°
2026-04-26 18:40 27.97851 33.19833 10021 ft 198 kts 154°
2026-04-26 18:40 27.96706 33.20697 10020 ft 198 kts 154°
2026-04-26 18:40 27.95546 33.21571 10017 ft 199 kts 154°
2026-04-26 18:41 27.94407 33.22429 10015 ft 199 kts 154°
2026-04-26 18:41 27.93247 33.23301 10016 ft 198 kts 154°
2026-04-26 18:41 27.92102 33.24165 10015 ft 199 kts 154°
2026-04-26 18:41 27.90946 33.25034 10017 ft 199 kts 154°
2026-04-26 18:42 27.89779 33.25913 10017 ft 199 kts 154°
2026-04-26 18:42 27.88627 33.26763 10017 ft 199 kts 154°
2026-04-26 18:42 27.87466 33.27629 10018 ft 199 kts 154°
2026-04-26 18:42 27.86308 33.28494 10018 ft 199 kts 154°
2026-04-26 18:43 27.85146 33.29361 10017 ft 199 kts 154°
2026-04-26 18:43 27.83986 33.30229 10018 ft 200 kts 154°
2026-04-26 18:43 27.82827 33.31097 10022 ft 200 kts 154°
2026-04-26 18:43 27.81666 33.31967 10019 ft 200 kts 154°
2026-04-26 18:44 27.80493 33.32847 10020 ft 200 kts 153°
2026-04-26 18:44 27.79333 33.33717 10020 ft 200 kts 153°
2026-04-26 18:44 27.78173 33.34588 10020 ft 200 kts 154°
2026-04-26 18:44 27.77009 33.35463 10022 ft 200 kts 153°
2026-04-26 18:45 27.75844 33.36333 10015 ft 200 kts 153°
2026-04-26 18:45 27.74695 33.37194 10014 ft 200 kts 153°
2026-04-26 18:45 27.73523 33.38077 10016 ft 200 kts 153°
2026-04-26 18:45 27.72378 33.38935 10014 ft 200 kts 154°
2026-04-26 18:46 27.71208 33.39809 10019 ft 200 kts 153°
2026-04-26 18:46 27.70057 33.40672 10015 ft 200 kts 154°
2026-04-26 18:46 27.68886 33.41552 10012 ft 200 kts 153°
2026-04-26 18:46 27.67728 33.42417 10015 ft 200 kts 153°
2026-04-26 18:47 27.66561 33.43291 10017 ft 200 kts 153°
2026-04-26 18:47 27.65399 33.44162 10017 ft 200 kts 154°
2026-04-26 18:47 27.64244 33.45027 10020 ft 200 kts 153°
2026-04-26 18:47 27.63084 33.45892 10018 ft 200 kts 153°
2026-04-26 18:48 27.61916 33.46769 10019 ft 200 kts 154°
2026-04-26 18:48 27.60754 33.47639 10019 ft 200 kts 154°
2026-04-26 18:48 27.59591 33.48507 10019 ft 199 kts 154°
2026-04-26 18:48 27.58437 33.49369 10021 ft 200 kts 153°
2026-04-26 18:49 27.57272 33.50237 10019 ft 200 kts 154°
2026-04-26 18:49 27.56111 33.51105 10019 ft 200 kts 153°
2026-04-26 18:49 27.54957 33.51968 10021 ft 200 kts 153°
2026-04-26 18:49 27.53798 33.52832 10024 ft 200 kts 153°
2026-04-26 18:50 27.52637 33.53699 10021 ft 201 kts 154°
2026-04-26 18:50 27.51450 33.54582 9895 ft 206 kts 153°
2026-04-26 18:50 27.50256 33.55474 9651 ft 203 kts 153°
2026-04-26 18:50 27.49092 33.56350 9415 ft 199 kts 153°
2026-04-26 18:51 27.47948 33.57203 9172 ft 196 kts 153°
2026-04-26 18:51 27.46812 33.58048 8937 ft 194 kts 152°
2026-04-26 18:51 27.45688 33.58887 8701 ft 193 kts 152°
2026-04-26 18:51 27.44571 33.59720 8463 ft 192 kts 152°
2026-04-26 18:52 27.43452 33.60554 8227 ft 192 kts 152°
2026-04-26 18:52 27.42337 33.61383 7987 ft 192 kts 152°
2026-04-26 18:52 27.41233 33.62203 7750 ft 191 kts 151°
2026-04-26 18:52 27.40121 33.63034 7515 ft 191 kts 151°
2026-04-26 18:53 27.39002 33.63864 7277 ft 191 kts 151°
2026-04-26 18:53 27.37901 33.64685 7045 ft 190 kts 150°
2026-04-26 18:53 27.36800 33.65502 6815 ft 190 kts 150°
2026-04-26 18:53 27.35690 33.66328 6562 ft 190 kts 150°
2026-04-26 18:54 27.34577 33.67153 6317 ft 190 kts 150°
2026-04-26 18:54 27.33485 33.67965 6072 ft 190 kts 150°
2026-04-26 18:54 27.32376 33.68785 5826 ft 190 kts 150°
2026-04-26 18:54 27.31257 33.69619 5578 ft 191 kts 149°
2026-04-26 18:55 27.30160 33.70431 5337 ft 191 kts 149°
2026-04-26 18:55 27.29050 33.71255 5126 ft 190 kts 149°
2026-04-26 18:55 27.27951 33.72071 4922 ft 188 kts 149°
2026-04-26 18:55 27.26854 33.72885 4734 ft 188 kts 149°
2026-04-26 18:56 27.25766 33.73695 4539 ft 187 kts 149°
2026-04-26 18:56 27.24668 33.74485 4346 ft 187 kts 149°
2026-04-26 18:56 27.23557 33.75270 4151 ft 187 kts 149°
2026-04-26 18:56 27.22449 33.76040 3918 ft 189 kts 149°
2026-04-26 18:57 27.21321 33.76816 3926 ft 190 kts 149°
2026-04-26 18:57 27.20557 33.77339 3931 ft 192 kts 150°
2026-04-26 18:57 27.19030 33.78382 3925 ft 195 kts 150°
2026-04-26 18:57 27.17893 33.79268 3930 ft 197 kts 143°
2026-04-26 18:58 27.16759 33.80111 3930 ft 198 kts 150°
2026-04-26 18:58 27.15516 33.80761 3926 ft 197 kts 154°
2026-04-26 18:58 27.14321 33.81554 3926 ft 198 kts 150°
2026-04-26 18:58 27.13124 33.82371 3686 ft 203 kts 150°
2026-04-26 18:59 27.11896 33.83181 3459 ft 205 kts 150°
2026-04-26 18:59 27.10661 33.83990 3235 ft 207 kts 150°
2026-04-26 18:59 27.09409 33.84789 3001 ft 197 kts 151°
2026-04-26 18:59 27.08296 33.85488 2742 ft 172 kts 152°
2026-04-26 19:00 27.07260 33.86132 2513 ft 168 kts 151°
2026-04-26 19:00 27.06229 33.86762 2425 ft 163 kts 152°
2026-04-26 19:00 27.05206 33.87291 2436 ft 164 kts 162°
2026-04-26 19:00 27.04112 33.87694 2443 ft 164 kts 163°
2026-04-26 19:01 27.03027 33.88083 2436 ft 162 kts 163°
2026-04-26 19:01 27.01978 33.88463 2431 ft 153 kts 163°
2026-04-26 19:01 27.00988 33.88824 2437 ft 147 kts 163°
2026-04-26 19:01 27.00023 33.89173 2438 ft 142 kts 164°
2026-04-26 19:02 26.99094 33.89513 2436 ft 138 kts 164°
2026-04-26 19:02 26.98179 33.89695 2449 ft 127 kts 191°
2026-04-26 19:02 26.97386 33.89382 2436 ft 114 kts 219°
2026-04-26 19:02 26.96972 33.89037 2439 ft 107 kts 232°
2026-04-26 19:03 26.96405 33.88211 2435 ft 95 kts 252°
2026-04-26 19:03 26.96240 33.87525 2442 ft 89 kts 272°
2026-04-26 19:03 26.96315 33.86841 2447 ft 88 kts 295°
2026-04-26 19:03 26.96630 33.86256 2446 ft 88 kts 311°
2026-04-26 19:04 26.97052 33.85772 2480 ft 83 kts 317°
2026-04-26 19:04 26.97495 33.85332 2442 ft 86 kts 322°
2026-04-26 19:04 26.97979 33.84935 2447 ft 86 kts 324°
2026-04-26 19:04 26.98470 33.84540 2444 ft 86 kts 323°
2026-04-26 19:05 26.99581 33.83778 2208 ft 101 kts 330°
2026-04-26 19:05 27.00222 33.83429 2075 ft 103 kts 335°
2026-04-26 19:05 27.00880 33.83101 1948 ft 103 kts 336°
2026-04-26 19:06 27.01530 33.82815 1923 ft 96 kts 336°